Location: Unspecified
(0.0000°N, 0.0000°E)
Time: 19:23:59
(UTC+00:00)

S-56A Canister/Altair - Visible Passes

Search period start: 18 April 2019 00:00
Search period end: 28 April 2019 00:00
Orbit: 633 x 2500 km, 38.9° (Epoch: 17 April)

Date Brightness Start Highest point End Pass type
(mag) Time Alt. Az. Time Alt. Az. Time Alt. Az.
18 Apr 8.4 19:44:01 10° NNW 19:47:34 32° N 19:47:34 32° N visible
19 Apr 8.3 19:11:25 10° NNW 19:16:09 30° NE 19:17:02 28° ENE visible
20 Apr 8.8 18:38:48 10° NNW 18:43:30 25° NE 18:46:29 14° E visible
20 Apr 10.1 20:43:07 10° WNW 20:43:57 14° W 20:43:57 14° W visible
21 Apr 11.0 05:10:25 10° S 05:19:10 25° SE 05:29:49 10° E visible
21 Apr 8.8 20:10:01 10° WNW 20:13:25 32° W 20:13:25 32° W visible
22 Apr 11.0 04:38:25 10° S 04:45:51 20° SE 04:54:48 10° E visible
22 Apr 7.7 19:36:57 10° WNW 19:42:16 53° SW 19:42:55 49° SSW visible
23 Apr 11.0 04:06:47 10° S 04:12:35 16° SE 04:19:22 10° ESE visible
23 Apr 7.5 19:03:53 10° NW 19:09:47 72° SW 19:12:25 26° SE visible
24 Apr 11.1 03:35:59 10° SSE 03:39:21 12° SE 03:43:04 10° ESE visible
24 Apr 7.6 18:30:47 10° NW 18:37:16 87° NE 18:41:54 11° SE visible
25 Apr 10.4 05:01:59 10° SSW 05:11:50 46° SE 05:25:05 10° ENE visible
25 Apr 9.9 20:06:43 10° WSW 20:08:04 11° SW 20:08:50 11° SSW visible
26 Apr 10.5 04:29:40 10° SSW 04:38:39 38° SE 04:50:48 10° ENE visible
26 Apr 9.7 19:32:12 10° W 19:35:29 16° SW 19:38:18 10° S visible
27 Apr 10.5 03:58:45 15° S 04:05:31 31° SE 04:16:21 10° ENE visible
27 Apr 9.6 18:58:18 10° W 19:02:57 22° SW 19:06:45 10° S visible
